{"data":{"norad_id":60925,"epoch":"2026-05-24T16:07:11.361792Z","epoch_age_seconds":96605,"freshness":"FRESH","line1":"1 60925U 24155B   26144.67165928  .00000962  00000+0  12789-4 0  9997","line2":"2 60925  53.1580 326.8777 0000687  91.1628 268.9468 15.69708928100339","mean_motion":15.69708928,"eccentricity":6.87e-5,"inclination_deg":53.158,"raan_deg":326.8777,"arg_perigee_deg":91.1628,"mean_anomaly_deg":268.9468,"bstar":1.2789e-5,"rev_number":10033,"period_min":91.736752866325,"perigee_km":359.26692662478,"apogee_km":360.19270952559,"semimajor_km":6737.8668180752,"source":"CELESTRAK","updated_at":"2026-05-25T13:38:19.317047Z"}}